Погода Урюпино

Поиск расширенной информации на нашем сайте:

Полезная информация:

Новости сайта



02.01.2020
Опубликован Долгосрочный прогноз погоды по городам России и ближнего зарубежья на январь 2020 года.
Карты: Прогноз на январь и февраль 2020 года, Сравнение прогнозируемой аномалии приземной температуры воздуха на январь 2020 года по разным моделям.




Погода Урюпино - сегодня

Время (UTC), дата Ветер
(°,м/с) 
Видим.   Явления Облачность Т
(°С)
Тd
(°С)
f(%) Тe
(°С)
Pmin
(гПа)
dP
(гПа)
Po
(мм)
O2
(г/м3)
Тmin Tmax R s Состояние
почвы
21 29.11.20 280 (З) н/о    3/0 верхняя 
[Ci fib]
-28 -31.2 74 -29  1037.7  0.3  739  334           
00 30.11.20 270 (З) 50000 м    ясно 
-29.5 -32.8 73 -30  1039  0.9  740  336  -29.7      сухой снег
50-90% 
03 30.11.20 090 (В) 20000 м    ясно 
-19.8 -23.8 70 -20  1036.6  -0.3  739  323           
06 30.11.20 тихо ()   н/о    н/о 
-11.5 -20.5 47 -12  1033.4  -1.5  738  312           
09 30.11.20 260 (З) н/о    н/о 
-22.9 -25.3 81 -23  1035.8  0.2  738  326           
12 30.11.20 260 (З) н/о    ясно 
-25.7 -28.4 78 -26  1037.2  0.8  739  330    -11.2       
15 30.11.20 280 (З) н/о    ясно 
-27.3 -30.2 76 -28  1037.3  -0.3  739  333           
18 30.11.20 280 (З) н/о    ясно 
-28.7 -31.8 75 -29  1037.3  -0.3  738  334           
21 30.11.20 260 (З) н/о    ясно 
-30.1 -33.5 72 -31  1037  -0.6  738  336           
00 01.12.20 тихо ()   50000 м    ясно 
-30.9 -34.4 71 -31  1037.1  738  337  -31.3      сухой снег
50-90% 
03 01.12.20 тихо ()   20000 м    ясно 
-21.1 -25.1 70 -21  1033.8  -1.2  737  324           
06 01.12.20 180 (Ю) 20000 м    ясно 
-14.9 -22 55 -15  1030.4  -2  736  315           
09 01.12.20 тихо ()   н/о    6/0 средняя, верхняя 
[Ac lent|Ci fib]
-23.8 -26.4 79 -24  1032.6  0.3  736  327           
12 01.12.20 260 (З) н/о    3/0 верхняя 
[Ci fib]
-27.1 -30.1 76 -28  1033.5  0.2  736  331    -14.9       
15 01.12.20 250 (З) н/о    ясно 
-29 -32.2 74 -30  1034.2  0.3  736  334           
18 01.12.20 тихо ()   н/о    ясно 
-29.9 -33.3 72 -30  1034.9  0.5  737  335           
21 01.12.20 270 (З) н/о    ясно 
-31 -34.5 71 -32  1034.9  -0.2  736  337           
00 02.12.20 270 (З) 50000 м    ясно 
-31.2 -34.7 71 -32  1034.2  -0.8  736  337  -31.5      сухой снег
50-90% 
03 02.12.20 200 (Ю) 20000 м    6/0 верхняя 
[Cs]
-21.9 -26.2 68 -22  1031.1  -1  735  324           
06 02.12.20 тихо ()   20000 м    8/0 верхняя 
[Cs]
-14.3 -21.5 54 -14  1026.8  -2.6  733  313           
09 02.12.20 тихо ()   н/о    8/0 средняя, верхняя 
[Ac lent|Ci fib]
-19.3 -22.4 76 -19  1028.6  0.7  734  320           
12 02.12.20 270 (З) н/о    5/0 верхняя 
[Cs]
-23.3 -25.8 80 -24  1029.7  0.3  734  325    -14       
15 02.12.20 тихо ()   н/о    10/0 верхняя 
[Cs]
-20.3 -22.7 81 -20  1028.3  -0.7  733  321           
18 02.12.20 220 (ЮЗ) н/о    10/0 верхняя 
[Cs]
-19.5 -22.1 80 -20  1026.2  -1.8  732  319           
21 02.12.20 260 (З) н/о    10/0 верхняя 
[Cs]
-18.6 -21.1 81 -19  1024.3  -1.7  731  317           
Время (UTC), дата Ветер
(°,м/с) 
Видим.   Явления Облачность Т
(°С)
Тd
(°С)
f(%) Тe
(°С)
Pmin
(гПа)
dP
(гПа)
Po
(мм)
O2
(г/м3)
Тmin Tmax R s Состояние
почвы

Для получения пояснительной информации подведите курсор к названию столбца.

ПОГОДА Урюпино - архив

Всё, что Вы хотите узнать о погоде Урюпино - удобно и подробно!

Выберите нужную дату (начиная с 1 января 2019* года) и нажмите кнопку "Найти".
Будут отображены архивные сводки погоды по пункту Урюпино, начиная с указанной даты.


Отображать данные в формате CSV (для использования в таблицах Excel)


Внимание! Наш архив погоды предназначен исключительно для личного некоммерческого использования в познавательных целях. Если Вам необходимы официальные справки о состоянии погоды (для производственных, юридических, коммерческих и т.п. целей), обращайтесь в органы Росгидромета.

*Примечание: данная дата относится к архиву по метеостанциям СССР (Россия, СНГ, Балтия).
Архив по метеостанциям Зарубежной Европы и Азии (кроме Китая) хранится 10 дней, по другим регионам земного шара (Китай, Африка, Америка, Австралия, Океания) - 1 день.

Урюпино - район местоположения метеостанции


Название, широта, долгота, высота метеостанции:
Урюпино 52.8°ш. 120°д. 370 м над ур. моря [Российская Федерация]

Дополнительная информация

В oтличие oт бoльшинства пoгoдных сайтoв мы публикуем пoдрoбную метеoинфoрмацию в детальнoм прoфессиoнальнoм фoрмате.

Характеристики температуры и влажнoсти вoздуха измеряются на высoте 2 м в тени вдали oт зданий и деревьев.
Скoрoсть ветра измеряется на высoте 10 м (на урoвне рoста челoвека скoрoсть ветра ниже в 1.5-2 раза). Если метеoстанция нахoдится в гoрoде или в лесу, тo скoрoсть ветра занижена на 2-4 м/с пo сравнению с oткрытым местoм. Скoрoсть ветра над акватoриями крупных рек и oзёр, а также на вершинах хoлмoв на 2-5 м/с выше, чем в oбычных услoвиях.
Атмoсфернoе давление в разных тoчках местнoсти мoжет значительнo oтличаться oт давления на метеoстанции, в зависимoсти oт услoвий рельефа (при пoдъёме на 10 м давление пoнижается примернo на 1 мм рт.ст.).